New York, NY

1:42 PM EDT on April 25, 2017 (GMT -0400)
La Guardia

Weather History for KLGA - July, 2014

Change the Weather History Date:

Wednesday, July 23, 2014

  Actual Average Record
Temperature  
Mean Temperature 82 °F 78 °F  
Max Temperature 89 °F 86 °F 100 °F (1955)
Min Temperature 74 °F 70 °F 59 °F (1992)
Degree Days  
Heating Degree Days 0 0  
Month to date heating degree days 0 0  
Since 1 June heating degree days 0 16  
Since 1 July heating degree days 0 0  
Cooling Degree Days 17 13  
Month to date cooling degree days 296 284  
Year to date cooling degree days 578 581  
Since 1 June cooling degree days 528 515  
Growing Degree Days 31 (Base 50)    
Moisture  
Dew Point 68 °F    
Average Humidity 69    
Maximum Humidity 79    
Minimum Humidity 59    
Precipitation  
Precipitation 0.12 in 0.14 in 3.51 in (2004)
Month to date precipitation 3.73 3.25  
Year to date precipitation 31.30 24.88  
Snow  
Snow 0.00 in 0.00 in - ()
Month to date snowfall 0.0 0.0  
Since 1 July snowfall 0.0 0.0  
Snow Depth 0.00 in    
Sea Level Pressure  
Sea Level Pressure 29.89 in    
Wind  
Wind Speed 10 mph (SSW)    
Max Wind Speed 24 mph    
Max Gust Speed 30 mph    
Visibility 10 miles    
Events Rain , Thunderstorm    
T = Trace of Precipitation, MM = Missing Value Source: NWS Daily Summary

Daily Weather History Graph

Daily Weather History Graph

Search for Another Location

Airport or City:

Trip Planner

Search our weather history database for the weather conditions in past years. The results will help you decide how hot, cold, wet, or windy it might be!

Date:

Astronomy

Jul. 23, 2014 Rise Set
Actual Time 5:43 AM EDT 8:19 PM EDT
Civil Twilight 5:11 AM EDT 8:51 PM EDT
Nautical Twilight 4:32 AM EDT 9:30 PM EDT
Astronomical Twilight 3:47 AM EDT 10:15 PM EDT
Moon 3:00 AM EDT (7/23) 5:46 PM EDT (7/23)
Length of Visible Light 15h 39m
Length of Day
14h 36m
Waning Crescent, 10% of the Moon is Illuminated
Jul 23
Waning Crescent
Jul 26
New
Aug 3
First Quarter
Aug 10
Full
Aug 17
Last Quarter

Hourly Weather History & Observations

Time (EDT) Temp. Heat Index Dew Point Humidity Pressure Visibility Wind Dir Wind Speed Gust Speed Precip Events Conditions
12:51 AM 77.0 °F - 62.1 °F 60% 30.03 in 10.0 mi SW 12.7 mph - N/A   Partly Cloudy
1:51 AM 75.9 °F - 62.1 °F 62% 30.02 in 10.0 mi SSW 8.1 mph - N/A   Partly Cloudy
2:51 AM 75.2 °F - 62.6 °F 65% 30.00 in 10.0 mi SSW 10.4 mph - N/A   Partly Cloudy
3:51 AM 75.0 °F - 62.1 °F 64% 29.99 in 10.0 mi SW 6.9 mph - N/A   Partly Cloudy
4:51 AM 73.9 °F - 62.1 °F 66% 29.98 in 10.0 mi SSW 9.2 mph - N/A   Partly Cloudy
5:51 AM 73.9 °F - 62.1 °F 66% 29.97 in 10.0 mi SSW 11.5 mph - N/A   Scattered Clouds
6:51 AM 73.9 °F - 64.0 °F 71% 29.97 in 10.0 mi SSW 10.4 mph - N/A   Scattered Clouds
7:51 AM 75.9 °F - 64.9 °F 69% 29.99 in 10.0 mi SW 8.1 mph - N/A   Scattered Clouds
8:51 AM 79.0 °F - 66.9 °F 66% 29.97 in 10.0 mi SW 8.1 mph - N/A   Partly Cloudy
9:51 AM 80.1 °F 82.3 °F 66.9 °F 64% 29.95 in 10.0 mi SW 10.4 mph - N/A   Scattered Clouds
10:51 AM 82.9 °F 85.8 °F 68.0 °F 60% 29.93 in 10.0 mi SSW 8.1 mph - N/A   Scattered Clouds
11:51 AM 84.9 °F 88.8 °F 69.1 °F 59% 29.90 in 10.0 mi South 12.7 mph 17.3 mph N/A   Scattered Clouds
1:51 PM 87.1 °F 93.6 °F 72.0 °F 61% 29.87 in 10.0 mi South 15.0 mph 21.9 mph N/A   Scattered Clouds
2:51 PM 87.8 °F 93.8 °F 71.6 °F 58% 29.85 in 10.0 mi South 17.3 mph 21.9 mph N/A   Scattered Clouds
3:51 PM 87.1 °F 93.6 °F 72.0 °F 61% 29.82 in 10.0 mi SSE 15.0 mph 23.0 mph N/A   Scattered Clouds
4:51 PM 87.8 °F 93.8 °F 71.6 °F 58% 29.79 in 10.0 mi SSE 13.8 mph 21.9 mph N/A   Scattered Clouds
5:51 PM 84.0 °F 89.0 °F 71.1 °F 65% 29.78 in 10.0 mi SSE 10.4 mph - N/A   Scattered Clouds
6:51 PM 84.0 °F 89.0 °F 71.1 °F 65% 29.76 in 10.0 mi South 11.5 mph 17.3 mph N/A   Mostly Cloudy
7:51 PM 84.0 °F 89.0 °F 71.1 °F 65% 29.78 in 10.0 mi South 9.2 mph 16.1 mph N/A   Mostly Cloudy
8:32 PM 84.2 °F 89.6 °F 71.6 °F 66% 29.78 in 10.0 mi South 8.1 mph - N/A Thunderstorm Thunderstorm
8:43 PM 84.2 °F 89.6 °F 71.6 °F 66% 29.78 in 10.0 mi South 13.8 mph - N/A Thunderstorm Thunderstorm
8:51 PM 84.9 °F 90.1 °F 71.1 °F 63% 29.81 in 10.0 mi SSW 11.5 mph 19.6 mph N/A Thunderstorm Thunderstorm
9:32 PM 77.0 °F - 68.0 °F 74% 29.81 in 10.0 mi SW 6.9 mph - 0.12 in   Mostly Cloudy
9:51 PM 78.1 °F - 69.1 °F 74% 29.82 in 10.0 mi West 5.8 mph - 0.12 in Rain Light Rain
10:51 PM 78.8 °F - 69.8 °F 74% 29.81 in 10.0 mi WNW 8.1 mph - N/A Rain Light Rain
11:51 PM 79.0 °F - 71.1 °F 77% 29.81 in 10.0 mi West 5.8 mph - 0.00 in Rain Light Rain